GFSNW_sfc_wetblb_003.txt.gz
Wetbulb
46.73 47.21 48.48 48.85 49.71 50.03 47.81 42.04 34.92 49.81 50.54 38.54 39.20 34.07 35.16 40.01 39.52 41.70 40.42 39.32 37.87 35.42 33.25 31.24 29.39 29.84 33.59 38.46 38.00 34.43 36.77 33.54 26.94 29.55 36.17 37.86 36.47 32.00 31.45 26.76 19.94 26.38 27.95 28.33
47.04 47.93 47.95 48.65 49.86 50.23 45.86 40.20 42.97 49.24 47.12 32.88 34.19 38.15 37.84 39.84 40.38 40.11 40.42 38.63 39.60 39.58 34.78 30.64 32.10 33.06 38.46 39.96 38.03 35.46 37.15 33.51 25.70 30.08 33.80 36.30 34.78 33.76 33.58 33.02 32.36 25.19 22.49 26.85
47.36 48.28 47.66 48.54 49.69 50.13 48.56 43.04 35.73 42.07 43.91 43.09 36.20 35.09 35.80 36.21 43.13 41.17 42.32 41.15 41.00 38.20 36.02 36.27 33.12 33.37 38.95 40.25 40.25 42.64 40.45 35.29 31.38 25.87 31.03 34.71 31.32 34.31 34.44 32.17 27.43 28.58 30.47 33.54
46.07 47.70 47.91 48.28 49.51 49.94 49.23 43.50 39.19 39.46 35.12 37.83 37.31 38.08 38.68 36.01 36.48 42.13 42.43 39.96 39.80 38.09 34.32 34.85 33.11 35.93 37.63 40.66 42.29 40.36 38.91 31.64 33.25 34.21 34.93 35.67 35.01 34.41 34.14 32.16 32.55 28.85 32.64 33.73
45.90 46.63 48.19 48.84 49.65 49.99 47.39 42.40 41.51 41.03 37.91 40.82 38.13 38.19 36.95 38.32 38.51 40.36 39.32 38.64 39.89 40.03 36.96 35.74 31.21 35.88 36.45 36.48 40.54 38.47 40.23 32.40 32.94 31.88 34.87 34.39 32.94 34.69 37.08 35.34 36.24 35.42 36.60 35.35
45.73 46.41 48.00 48.82 49.63 49.09 42.76 44.19 47.66 43.42 39.49 39.74 37.41 37.31 37.87 39.21 41.51 42.54 42.09 41.04 40.05 39.17 40.53 41.25 41.27 40.82 41.87 41.55 39.75 38.08 35.39 32.88 32.35 29.61 36.86 34.85 30.24 34.07 36.72 37.51 39.26 38.41 33.94 38.66
45.45 45.89 47.27 48.49 49.24 49.15 46.38 44.97 43.83 42.85 36.86 38.80 38.53 40.61 40.48 39.57 40.46 39.16 42.03 43.19 41.22 43.60 46.68 44.62 42.48 42.53 41.44 42.21 41.47 40.72 35.01 33.20 33.55 31.35 35.40 27.94 36.12 43.03 42.09 39.44 39.42 39.88 39.88 41.43
45.39 45.64 46.65 47.95 48.93 49.42 46.24 47.12 45.65 44.26 39.00 39.55 40.24 40.93 40.76 41.03 41.36 40.92 40.56 42.62 44.75 47.24 44.42 40.22 36.51 37.59 38.50 37.31 38.08 39.42 39.92 36.35 34.36 32.40 29.86 33.22 36.12 41.25 40.56 38.52 37.16 41.59 41.13 41.77
45.33 45.63 46.30 47.78 48.76 49.16 46.98 46.15 49.41 45.60 41.44 40.14 43.38 41.27 40.84 39.04 38.69 39.06 40.62 43.90 45.58 45.72 42.44 39.42 34.23 29.77 30.71 29.49 34.14 36.93 36.38 36.47 35.53 33.95 27.06 25.42 32.41 39.20 41.71 43.14 34.48 42.90 43.03 42.27
45.21 45.61 46.09 47.43 48.26 48.93 47.80 45.84 49.99 46.56 39.34 43.71 42.85 40.62 39.56 41.74 38.57 35.62 38.74 41.75 42.68 44.65 39.17 36.72 34.08 32.32 33.40 29.01 28.75 31.35 33.95 35.53 31.50 32.34 31.01 31.10 36.91 37.77 39.57 33.27 33.65 37.91 42.19 41.55
44.98 45.62 45.87 47.02 48.08 48.64 48.01 45.90 48.32 48.10 43.91 44.05 44.31 44.82 41.70 41.18 40.73 38.01 41.53 40.78 41.71 40.97 37.32 37.16 35.93 33.71 33.63 30.89 31.29 31.45 33.01 33.64 29.96 30.27 27.53 24.71 38.37 37.29 34.45 36.88 36.14 37.65 37.75 36.32
45.08 45.54 45.59 46.64 47.28 48.22 48.63 45.04 49.92 51.23 46.15 43.75 46.88 45.84 45.62 46.64 46.21 43.18 43.22 41.89 42.16 43.31 40.00 39.20 39.44 35.08 34.19 34.12 29.52 33.98 32.81 35.98 33.29 33.79 32.73 38.24 37.97 37.56 38.43 38.59 37.58 35.98 36.33 37.19
45.11 45.49 45.49 46.25 47.02 48.07 47.64 45.93 48.67 48.76 45.33 44.55 44.03 43.96 47.03 49.05 48.95 49.37 42.20 43.56 45.38 44.31 44.68 42.35 39.46 33.61 36.63 33.43 32.91 31.93 35.41 38.62 36.56 37.26 36.18 36.20 36.98 38.15 38.47 38.24 36.59 37.03 37.99 37.88
45.17 45.42 45.28 45.56 46.64 47.63 47.26 44.08 46.71 47.14 45.93 40.64 41.18 46.57 43.31 46.91 48.11 48.12 48.14 46.71 47.41 46.65 46.30 42.83 36.98 35.08 36.48 33.77 34.72 35.02 37.59 38.01 36.13 35.40 34.48 35.21 37.45 36.88 36.99 36.57 37.31 37.25 37.30 37.53
45.16 44.30 44.65 45.30 46.12 47.00 45.62 45.07 46.44 48.50 46.47 41.49 42.68 44.49 44.61 46.98 47.08 46.91 47.39 46.53 45.30 45.17 44.10 43.15 40.16 38.28 37.30 35.19 35.13 33.45 36.28 37.80 36.40 35.55 38.93 38.98 37.92 38.16 37.33 36.94 36.17 36.65 35.89 35.11
43.34 44.01 44.65 45.16 45.69 46.26 43.31 42.22 49.13 50.42 50.24 43.46 39.80 46.02 44.89 46.10 47.28 46.85 46.51 46.29 45.44 45.56 44.31 43.50 44.54 43.94 41.76 32.86 32.25 38.81 38.01 38.67 40.84 40.18 37.38 36.24 36.40 36.84 37.06 36.41 36.35 36.58 35.70 36.00
43.69 44.00 44.37 45.20 45.34 43.69 38.86 40.95 45.12 46.92 48.54 43.44 37.90 39.54 44.98 46.22 46.19 46.47 46.11 47.08 46.18 45.56 44.55 43.45 43.03 42.70 43.23 38.30 32.74 39.18 39.14 38.32 37.02 37.11 37.80 36.25 35.74 35.22 36.02 36.51 36.41 36.63 34.77 34.66
42.75 43.20 44.03 44.57 44.95 44.53 41.40 44.75 46.89 47.47 46.74 44.90 35.90 36.67 40.88 45.37 43.90 42.49 46.78 44.00 45.05 44.38 43.23 42.39 41.10 39.54 40.07 36.77 38.52 37.33 36.11 36.10 36.13 35.49 36.47 37.59 35.43 35.10 33.94 34.91 35.22 33.51 32.17 32.11
43.68 43.75 44.50 44.20 41.41 40.49 44.75 50.25 49.71 49.50 46.28 39.13 38.08 34.74 34.00 44.22 42.85 42.55 42.95 44.00 41.09 43.27 40.87 40.40 39.75 37.16 34.73 38.17 38.65 37.50 36.20 37.06 34.96 33.67 34.48 34.91 34.21 32.91 33.32 33.58 33.04 31.55 30.40 30.39
42.81 40.46 37.62 37.72 39.50 41.88 47.48 47.01 43.95 41.76 42.43 42.17 39.24 39.47 37.44 41.60 41.07 38.38 40.06 39.51 38.27 33.87 38.92 39.13 37.30 36.71 40.26 40.87 40.18 39.86 37.38 35.28 34.71 32.49 27.77 29.10 28.61 30.80 30.84 32.03 33.00 33.31 31.01 29.23
36.26 35.82 33.08 37.79 40.98 39.20 43.72 36.88 37.84 39.30 35.57 40.67 37.85 38.10 37.83 40.36 37.78 38.11 37.75 34.60 34.03 30.02 32.41 36.42 33.29 34.59 36.97 38.27 39.82 37.89 36.24 36.09 35.77 35.71 34.75 34.83 34.46 32.02 30.16 29.38 29.76 29.88 30.04 29.12
37.73 37.49 39.78 36.37 33.86 35.07 33.10 32.28 34.51 36.29 35.02 37.78 38.90 36.87 37.32 37.64 40.25 37.37 36.18 32.88 33.67 30.92 34.04 33.52 31.51 34.74 32.16 34.76 36.14 35.31 35.47 35.20 35.03 34.93 33.88 32.70 32.25 31.84 30.91 30.18 29.74 29.34 29.42 28.39
39.01 35.58 31.15 30.61 31.17 28.96 30.09 28.52 32.35 32.43 35.74 36.19 36.28 33.40 36.45 35.59 37.50 32.85 32.35 32.40 32.13 29.89 29.44 29.05 31.48 28.58 31.27 32.30 32.82 33.12 34.22 33.95 32.28 31.29 31.71 31.15 29.69 30.49 30.76 28.98 29.34 29.04 27.68 27.10
31.21 28.08 24.25 26.04 28.62 30.61 31.09 31.25 26.38 29.69 34.95 36.53 36.01 33.83 35.15 35.04 32.08 31.10 25.26 32.21 30.11 25.97 24.71 25.01 26.15 26.65 31.15 31.62 31.91 33.00 31.00 30.77 30.13 29.86 30.32 29.77 29.48 28.24 28.93 29.33 29.41 28.73 27.22 26.08
29.22 29.87 24.40 29.06 32.47 32.26 32.26 32.30 32.53 34.53 37.35 36.31 35.05 33.03 35.27 32.37 31.17 28.24 29.77 27.60 25.47 26.05 26.57 25.82 25.69 21.82 27.48 29.99 30.62 29.71 28.98 29.56 29.49 30.00 29.72 28.50 28.74 27.96 26.39 27.03 27.88 27.77 26.50 25.10
29.56 29.45 27.70 32.98 31.49 31.85 32.25 32.29 32.55 36.17 37.62 34.65 35.57 32.21 29.90 31.12 30.97 23.48 20.90 22.63 23.01 28.92 26.47 23.22 23.04 27.53 28.06 28.03 28.60 28.91 29.84 30.26 30.44 30.54 30.28 29.92 29.24 27.66 25.37 25.50 25.27 24.75 24.12 22.06
28.84 30.43 33.44 31.73 31.44 31.52 32.24 34.62 35.08 40.10 35.66 34.66 32.35 30.74 28.05 24.92 21.63 20.20 22.39 24.37 29.45 27.42 22.44 23.30 21.12 23.52 26.37 27.36 28.16 28.83 30.19 30.21 30.05 29.24 28.78 26.99 26.37 25.73 24.85 21.74 20.06 20.86 20.11 19.73

GFSNW_sfc_wetblb_006.txt.gz
Wetbulb
47.25 46.84 47.17 48.44 49.18 49.38 47.35 41.67 34.74 49.27 50.47 37.07 38.02 31.68 33.24 38.85 39.02 40.71 40.93 38.46 37.71 34.78 32.92 31.12 28.47 28.70 32.28 37.71 37.44 33.29 36.79 34.33 26.71 28.47 34.71 37.01 34.72 31.56 30.79 25.02 18.82 23.82 19.52 23.97
47.03 46.40 47.17 48.01 49.06 49.83 44.98 38.51 42.04 49.58 47.24 32.75 34.40 35.42 36.05 38.46 39.23 39.43 39.35 37.70 39.13 39.86 35.29 29.85 31.33 32.39 37.53 38.71 37.38 34.87 36.62 32.72 26.19 26.73 32.03 35.65 33.37 33.40 32.85 31.60 30.30 22.68 18.93 24.89
46.66 46.41 47.03 47.65 49.24 50.14 46.98 39.87 35.75 41.63 43.19 41.88 36.79 34.47 34.27 34.33 41.01 40.31 41.26 40.03 39.45 37.63 36.20 34.91 31.53 32.68 37.61 38.85 38.70 41.88 40.19 35.17 30.39 24.65 29.57 33.53 31.28 32.47 33.30 31.39 26.50 26.15 26.92 29.34
46.59 46.21 46.74 47.57 49.33 49.79 47.69 42.82 36.88 38.41 32.32 37.15 36.85 37.72 36.00 34.60 35.47 40.62 41.75 40.05 39.21 38.07 35.73 35.10 33.49 34.74 35.83 38.92 41.25 40.79 38.38 30.91 32.94 33.43 33.79 33.95 34.38 33.55 33.01 30.76 30.59 26.42 29.35 30.68
46.49 45.83 47.18 47.80 49.33 49.92 44.42 40.41 38.98 39.80 37.17 39.08 35.10 35.18 35.86 35.39 37.63 39.66 38.12 37.13 39.22 39.61 37.16 36.26 31.85 35.54 35.69 35.74 38.16 37.72 39.29 31.41 32.86 31.31 35.15 33.92 32.63 34.92 35.47 34.76 33.18 32.17 32.36 31.77
45.75 45.98 47.42 48.12 48.99 49.22 41.36 42.47 44.30 41.04 39.45 38.27 34.35 34.41 35.94 36.73 40.72 40.75 41.28 41.08 40.20 38.91 40.63 42.64 42.81 42.14 40.47 40.45 39.12 37.23 35.34 32.52 31.96 28.42 35.32 34.83 29.41 33.23 34.07 35.28 36.22 34.51 30.41 34.81
45.59 45.75 46.83 47.76 48.88 49.17 45.23 43.95 43.98 40.83 36.09 37.88 36.30 38.40 37.66 38.80 40.87 38.37 40.46 42.53 40.74 43.57 46.44 45.72 42.78 39.83 39.55 39.78 40.52 41.22 34.71 32.53 32.99 29.24 32.93 27.80 36.28 39.74 37.78 35.56 37.97 38.10 37.55 39.94
45.56 45.74 46.20 46.94 48.38 49.17 46.24 46.04 43.92 43.62 37.09 39.30 37.94 40.53 38.97 40.28 41.48 40.79 41.00 42.03 43.88 46.36 44.55 39.94 36.12 35.75 35.90 36.90 39.54 39.59 39.85 35.23 32.78 30.40 30.73 33.95 36.44 40.12 36.02 34.87 35.66 39.83 39.08 40.93
45.79 45.38 46.20 46.57 47.99 48.78 46.79 45.94 47.79 45.32 39.87 37.51 41.80 40.49 40.74 39.24 39.09 39.61 41.52 42.75 44.34 46.13 42.27 38.23 33.07 27.46 32.16 29.27 32.88 34.77 38.48 38.60 34.27 32.75 29.11 23.87 31.73 40.88 44.13 42.79 35.07 41.90 41.74 41.52
45.84 45.42 46.00 46.27 47.85 48.42 46.95 46.08 48.23 45.79 41.91 43.02 44.04 40.47 40.24 42.17 40.08 37.82 37.87 38.66 40.46 43.35 39.44 35.80 34.26 32.56 33.86 28.09 28.56 33.32 34.13 33.33 31.67 31.67 30.97 30.92 35.85 36.63 42.77 34.48 34.52 37.75 43.03 42.55
45.74 45.53 45.86 45.84 47.09 48.29 47.09 45.03 48.80 47.22 43.08 43.61 44.98 44.43 41.17 40.13 40.04 37.10 41.04 40.46 41.32 40.20 37.06 36.48 36.49 35.36 32.84 29.35 30.54 31.04 31.69 30.40 29.98 29.66 27.40 24.15 37.60 36.84 33.54 37.02 36.74 36.41 37.27 36.81
45.64 45.42 45.77 45.42 46.03 47.56 47.99 42.98 47.61 49.18 44.70 42.46 45.81 45.87 45.59 45.52 45.28 43.00 42.63 41.44 41.96 42.49 40.18 37.91 39.37 36.21 32.52 31.64 28.04 32.36 31.36 34.74 32.36 32.85 31.88 37.21 37.12 37.36 38.90 37.97 37.20 35.18 36.14 36.20
45.37 45.50 45.64 44.98 45.67 46.77 46.88 43.53 45.64 47.05 45.30 44.07 42.83 42.66 45.97 48.23 48.25 48.59 42.13 43.25 44.93 44.17 45.66 41.76 38.12 36.02 35.55 31.33 31.74 29.98 33.78 37.33 35.69 35.79 35.12 35.99 36.31 37.05 36.61 36.59 35.70 36.28 37.23 36.60
45.29 45.43 44.39 44.76 45.37 46.20 46.52 42.82 44.44 43.67 45.28 40.11 39.03 45.90 43.35 45.86 47.23 47.45 48.00 46.66 47.34 46.64 45.86 43.33 39.47 36.26 36.65 33.60 34.60 34.37 36.97 36.33 35.79 35.30 36.60 35.92 36.79 36.30 35.54 35.62 36.32 36.64 36.88 37.10
43.68 43.73 44.05 44.55 45.04 45.68 44.72 43.69 44.42 45.57 44.52 41.04 42.32 43.13 43.28 45.72 46.16 45.73 47.25 46.41 45.16 44.09 43.02 42.13 40.33 38.17 36.82 34.58 34.42 32.97 37.21 37.85 36.70 35.61 38.97 38.17 37.05 36.69 36.46 35.85 35.14 36.20 35.70 35.06
43.56 43.14 43.06 43.54 44.24 44.72 40.94 39.34 47.83 49.24 49.15 43.70 39.23 45.70 44.33 46.05 46.97 46.39 46.21 46.24 45.32 44.81 43.78 43.50 44.39 43.72 39.84 32.77 32.23 38.52 37.59 38.19 40.28 39.75 36.25 35.43 35.61 36.16 35.93 35.10 35.06 35.48 34.95 35.53
42.91 43.37 43.23 43.45 43.66 40.61 37.85 38.46 44.17 45.82 45.45 43.81 37.54 37.21 44.72 45.93 45.35 46.16 46.15 46.66 45.43 44.83 43.36 43.40 43.06 42.64 42.30 39.34 35.53 39.37 38.77 38.45 36.49 36.34 36.95 35.85 35.83 35.73 35.84 35.89 35.20 35.39 33.71 33.95
43.18 43.42 43.50 43.82 44.34 43.60 39.84 43.48 45.73 45.66 43.19 44.90 36.09 36.53 40.38 45.62 42.81 42.19 46.33 44.07 44.88 44.37 43.08 42.94 41.18 40.92 40.62 36.78 38.78 36.88 35.46 35.91 35.54 34.77 35.60 37.17 35.27 34.65 33.90 34.37 34.35 32.82 32.22 32.75
44.48 43.25 43.77 43.92 41.69 38.30 41.84 43.83 44.81 46.41 45.73 38.93 38.11 34.38 32.27 43.71 42.80 42.03 43.43 44.06 40.34 43.48 40.84 40.89 40.29 38.34 35.34 38.95 38.93 37.86 36.14 36.90 34.44 33.43 34.29 34.87 34.24 32.81 33.17 33.55 33.02 32.27 31.59 31.03
42.57 40.21 36.27 36.59 37.34 42.76 42.58 44.58 43.41 41.76 43.25 42.73 39.08 38.44 36.92 40.75 41.21 39.16 39.96 39.96 38.19 33.64 39.02 39.76 37.50 37.28 41.13 41.11 40.52 40.36 37.82 35.16 34.38 32.52 29.24 30.23 30.63 32.58 32.42 32.73 33.30 33.00 32.13 30.62
35.92 32.09 33.66 38.47 41.48 39.14 41.68 37.12 37.65 39.12 35.76 40.75 39.26 36.55 37.89 39.72 36.96 37.76 37.69 34.91 34.05 32.38 32.07 36.36 33.07 34.41 37.09 37.28 39.79 39.43 37.25 36.03 36.08 36.25 35.13 35.55 35.47 32.97 31.43 30.78 30.57 30.18 29.79 28.45
37.14 36.90 39.29 37.71 34.30 32.88 32.14 32.51 34.55 35.68 32.21 37.55 38.52 36.94 36.75 37.09 39.16 37.62 36.24 31.14 33.57 30.49 32.69 33.42 31.34 33.00 32.43 33.95 35.50 35.34 35.31 35.28 35.61 34.67 34.43 33.90 33.80 33.32 31.94 30.24 29.23 28.51 27.91 27.01
38.47 34.89 31.10 30.57 30.45 28.18 29.99 28.40 31.52 32.76 35.47 36.23 36.07 33.28 35.06 35.26 35.31 34.10 32.54 31.82 31.59 29.28 30.24 30.01 30.66 28.61 31.34 32.11 33.35 33.30 33.97 34.74 32.90 31.83 31.97 31.76 30.38 31.24 30.99 28.81 28.61 27.86 26.81 25.85
29.61 26.18 20.40 25.73 26.56 30.13 30.94 30.39 31.45 32.31 33.03 35.51 35.73 29.68 31.23 35.59 30.46 31.48 31.49 32.65 30.95 27.82 25.96 24.20 26.03 26.14 29.83 31.58 31.86 32.36 31.40 31.34 30.21 29.43 29.99 29.87 29.60 28.44 29.14 28.87 28.66 27.74 26.00 25.57
28.64 27.95 20.43 25.29 32.31 32.33 32.36 32.64 32.28 34.33 36.98 35.38 35.09 33.41 34.01 31.12 26.76 27.91 30.61 28.28 26.48 26.33 25.73 25.40 24.75 21.71 26.96 29.62 29.92 29.45 28.56 28.37 27.99 28.51 28.81 28.15 28.80 28.43 27.53 28.00 28.16 27.27 26.19 24.91
29.88 26.27 21.55 31.05 27.19 26.00 32.41 32.44 32.32 35.48 37.82 35.16 34.96 32.60 31.76 31.62 27.24 24.79 25.34 22.58 23.24 27.82 25.35 23.94 20.85 26.79 27.78 27.79 28.50 28.07 28.64 29.10 29.47 29.25 29.34 28.88 28.66 28.08 27.12 27.16 26.43 25.68 24.57 22.79
27.97 28.85 32.09 29.86 28.44 30.77 31.50 34.06 35.01 38.91 35.74 33.57 32.69 30.68 31.11 26.23 22.28 21.39 23.60 25.33 29.23 29.29 22.09 28.17 21.20 22.12 25.50 26.84 27.76 28.24 28.97 28.88 28.82 28.42 28.10 27.52 27.97 27.87 26.56 22.99 21.33 21.77 21.25 20.82

GFSNW_sfc_wetblb_012.txt.gz
Wetbulb
47.98 47.83 47.14 48.38 48.91 49.77 48.29 41.21 34.09 47.19 48.38 35.30 36.15 35.05 35.45 41.04 39.74 43.18 40.82 40.34 38.45 36.34 36.57 34.58 34.99 34.75 36.43 40.92 41.29 36.39 39.46 34.88 29.22 32.02 38.74 40.08 38.52 34.81 33.45 27.63 25.92 29.47 28.03 28.97
47.73 47.32 47.15 48.22 48.90 49.90 46.57 37.39 39.33 47.65 47.26 34.19 35.48 36.91 38.27 41.15 39.90 40.79 40.27 38.88 40.07 39.87 36.57 33.37 36.27 36.17 40.14 40.91 40.37 38.35 39.17 33.39 27.44 31.37 34.67 37.56 33.62 35.90 35.79 34.18 33.04 28.09 25.16 29.01
48.14 47.08 46.82 47.94 48.76 50.73 48.49 38.69 34.68 39.43 42.19 42.90 37.32 36.56 36.62 37.72 43.00 41.64 42.07 40.16 41.43 39.00 36.54 38.11 35.30 35.73 39.36 41.00 41.01 41.51 41.32 35.80 31.76 28.98 32.99 36.26 33.01 33.83 34.81 33.52 28.66 29.78 29.91 32.08
47.63 47.30 47.10 48.56 49.80 50.56 46.70 41.66 37.39 39.35 35.21 37.49 39.18 39.37 38.74 37.31 36.96 42.04 43.00 39.47 39.24 38.17 35.07 35.82 35.32 37.27 37.78 39.49 41.05 40.96 39.39 31.71 33.86 34.21 35.02 34.80 34.08 33.56 34.55 31.68 32.69 28.99 32.75 33.31
47.22 47.15 47.21 48.81 49.40 49.76 44.16 37.83 38.68 41.59 39.28 40.12 38.81 38.71 36.79 36.80 38.94 39.78 38.32 38.83 40.24 40.18 36.99 37.90 35.92 38.08 38.10 37.82 39.99 38.68 40.13 32.73 34.58 31.57 35.09 35.55 33.16 35.23 35.34 34.90 34.76 34.19 34.63 33.90
46.98 47.04 47.64 48.22 48.82 47.98 42.77 43.14 43.44 42.28 39.66 38.55 37.63 37.88 37.79 38.14 41.03 41.59 42.66 41.53 40.32 38.93 40.32 43.34 44.09 43.94 42.52 41.27 39.48 37.75 36.77 34.28 32.27 29.05 35.88 35.43 31.89 35.03 35.87 35.94 36.63 35.50 31.40 36.86
46.85 46.80 46.67 47.26 48.06 47.78 44.51 44.56 43.00 40.75 35.87 38.26 37.67 38.78 39.87 39.18 40.12 40.21 42.13 42.89 40.94 43.82 47.67 47.41 46.20 44.98 43.70 43.02 42.07 41.85 37.02 34.19 33.37 29.80 33.53 28.78 38.12 41.17 40.55 38.06 38.30 38.79 38.40 39.52
46.64 46.69 46.62 46.93 46.67 47.64 44.26 45.77 43.34 41.32 37.99 39.20 38.76 39.33 39.63 41.81 43.19 41.81 41.97 43.21 45.50 47.66 44.98 39.81 35.89 36.74 37.91 39.24 41.72 41.59 41.24 37.39 33.15 31.08 31.42 35.33 38.12 38.53 39.83 37.11 37.45 41.33 40.00 40.99
46.39 46.41 46.35 46.90 46.22 46.96 44.64 45.60 47.44 44.19 40.70 39.00 41.73 40.26 40.22 39.07 39.72 40.81 42.13 45.64 47.90 46.70 42.45 38.78 32.10 32.14 34.19 33.88 35.83 40.85 39.87 39.21 35.13 33.47 29.25 28.99 38.15 40.94 42.94 42.28 35.82 41.98 41.19 41.63
46.24 46.21 46.34 46.51 45.62 46.28 44.92 44.80 46.44 43.39 39.73 45.17 43.58 40.80 40.76 44.31 42.87 40.89 41.46 42.26 42.92 45.33 40.06 35.28 33.82 32.94 37.43 33.61 33.55 34.02 34.45 34.57 32.29 32.67 31.26 35.58 41.10 41.38 44.51 35.20 37.03 41.99 42.51 43.70
45.15 45.45 45.34 45.04 45.11 45.50 44.73 43.11 46.49 41.60 39.42 43.94 46.14 46.17 43.90 43.23 44.16 40.24 42.31 41.45 41.96 41.03 36.10 35.92 35.81 35.28 37.71 36.25 37.70 37.06 36.22 34.63 33.08 34.68 30.90 31.27 42.35 42.65 38.84 42.31 43.52 41.79 42.76 42.97
44.24 44.29 44.33 44.51 44.75 44.93 45.16 41.00 44.88 45.10 39.92 44.21 48.08 48.35 48.49 47.95 48.00 45.09 43.86 42.93 42.16 42.56 38.62 38.92 38.82 35.99 38.26 37.25 34.92 39.07 35.33 39.70 38.75 38.57 39.59 43.45 44.23 44.46 45.42 43.13 41.79 42.19 42.55 42.33
44.13 44.10 44.19 44.24 43.98 44.41 43.88 41.69 43.25 41.03 40.11 45.55 45.44 45.73 48.51 49.74 49.05 51.32 44.22 43.47 46.10 44.69 46.16 42.72 40.07 36.63 38.98 36.48 37.45 38.30 40.67 42.21 40.42 40.06 43.66 43.35 44.60 45.09 43.45 41.46 41.01 41.42 42.92 41.40
44.36 44.26 44.11 43.83 43.96 44.27 43.95 41.40 42.91 41.28 38.37 38.70 41.93 47.73 46.77 49.02 49.43 49.41 49.61 48.20 48.26 47.18 46.22 41.94 39.24 37.30 42.57 40.31 39.43 39.53 42.84 41.67 41.54 41.43 44.17 45.16 44.09 43.23 41.62 40.18 40.34 40.07 40.82 40.03
44.39 44.36 44.09 43.49 43.57 44.11 43.89 42.67 42.67 42.65 38.40 37.84 43.07 46.06 46.72 48.16 48.56 48.06 48.62 48.19 46.79 45.23 42.49 40.86 38.65 43.26 38.27 40.94 39.66 39.39 43.00 43.57 41.86 41.76 44.31 44.46 43.47 41.52 40.93 40.25 39.07 38.97 37.59 36.59
44.27 44.25 43.82 43.53 43.80 43.61 41.38 37.59 43.92 43.31 41.83 37.91 39.51 46.17 44.79 46.23 47.32 46.95 46.33 46.58 46.00 46.12 43.06 41.50 43.28 46.06 41.11 39.53 38.88 44.41 45.13 45.06 46.25 45.81 43.34 41.62 41.22 41.11 40.85 39.58 38.78 38.90 38.10 37.08
44.13 43.91 43.39 43.60 43.55 42.90 36.83 36.48 41.55 43.47 43.09 38.01 38.39 38.83 45.47 46.69 46.37 45.98 45.32 46.99 46.40 45.08 43.16 41.45 41.94 43.45 42.43 40.13 37.90 44.63 45.85 45.72 44.58 43.87 41.95 40.50 40.17 41.36 40.05 39.33 38.48 38.06 37.03 36.69
43.51 43.43 43.12 43.32 44.10 42.72 39.26 42.94 44.71 44.94 41.05 41.53 37.05 37.65 40.68 46.16 43.10 42.15 46.91 44.26 44.95 44.32 42.84 43.30 41.98 42.31 42.04 38.50 43.88 46.09 45.13 42.86 42.24 42.36 40.97 40.64 40.66 39.06 37.86 37.63 37.13 35.57 34.29 34.10
43.06 42.46 42.97 44.02 41.80 38.12 40.20 43.61 44.62 44.63 41.11 39.01 39.11 35.44 35.19 45.01 43.47 43.96 44.50 45.70 40.66 44.25 41.25 41.36 41.27 40.33 36.64 41.99 44.48 45.08 45.52 43.20 43.22 38.94 38.99 38.84 38.76 37.25 36.38 36.90 36.68 35.42 34.36 34.37
41.48 39.59 37.25 35.37 37.81 42.45 42.88 41.53 39.07 39.45 40.71 42.01 39.40 40.48 38.11 42.59 42.43 41.56 41.31 41.57 39.43 35.02 39.64 40.37 37.51 37.99 44.20 45.55 45.43 46.21 44.84 42.98 38.73 36.72 34.41 35.02 34.60 34.74 35.81 36.35 37.91 37.32 35.18 33.83
37.83 33.05 33.26 38.03 41.84 40.38 38.49 33.30 35.30 38.48 36.69 41.24 41.16 40.12 38.73 43.24 38.82 40.06 40.52 38.26 35.98 33.94 36.32 36.50 36.60 37.10 40.64 41.10 39.83 41.38 44.37 42.51 40.87 41.12 40.90 40.17 39.64 37.43 36.60 36.09 35.62 34.91 34.42 32.83
37.25 37.47 39.65 38.77 35.16 33.56 32.41 32.25 35.06 35.62 35.18 39.65 39.50 39.91 40.13 40.83 41.77 40.45 38.62 35.49 35.64 32.54 35.36 34.10 33.03 38.59 38.82 37.05 37.53 38.64 41.52 40.65 39.61 39.70 39.46 39.87 39.04 38.20 36.78 35.23 34.69 34.10 32.38 30.79
38.95 35.34 30.58 31.71 32.92 30.53 29.42 27.06 31.70 33.34 34.88 35.58 36.97 36.57 39.54 38.96 39.59 36.92 36.00 33.37 33.47 34.98 32.71 31.44 35.68 38.38 36.43 34.76 36.14 37.35 37.98 39.08 37.81 36.29 37.40 37.71 36.35 35.97 35.49 33.73 32.90 32.09 30.70 30.54
31.48 28.71 23.96 29.14 28.58 30.15 30.40 30.52 31.68 34.65 34.08 35.58 37.49 35.69 36.44 36.93 35.95 35.21 33.23 35.05 33.86 30.25 28.81 30.64 36.51 35.64 33.27 33.70 35.11 35.96 36.09 36.50 35.47 34.41 34.49 34.02 33.73 32.78 33.19 32.69 32.09 30.89 28.80 28.66
29.78 28.86 24.17 27.63 30.54 32.87 33.05 32.85 32.96 34.58 36.45 36.03 36.22 35.45 36.12 34.24 33.36 33.16 33.32 30.87 29.29 30.61 31.57 35.53 35.67 32.37 31.15 33.84 34.49 34.59 34.20 33.56 32.97 33.12 32.80 32.05 31.71 31.45 30.21 31.18 31.91 30.60 28.86 28.44
31.10 28.80 27.13 30.43 28.24 27.90 30.73 32.44 31.97 35.78 36.67 35.82 35.66 33.97 33.41 33.98 33.83 30.45 30.41 29.16 28.85 33.82 35.33 36.92 31.95 32.25 32.85 33.45 33.31 33.19 32.80 32.94 32.56 32.63 32.36 31.75 30.89 30.24 29.03 29.87 29.71 29.05 27.95 26.48
28.40 29.28 32.16 31.22 28.65 27.06 29.90 31.31 32.23 36.58 34.74 32.83 32.97 31.74 32.97 30.79 29.95 28.21 31.28 30.83 34.54 32.47 33.90 30.92 30.66 30.66 32.12 32.16 31.85 31.59 31.78 31.83 31.89 31.48 31.80 30.69 29.81 29.65 28.69 26.53 27.02 26.82 26.82 26.20

GFSNW_sfc_wetblb_015.txt.gz
Wetbulb
48.04 48.40 47.72 48.72 49.62 51.13 48.75 40.21 33.85 47.00 49.51 37.77 38.69 36.40 37.41 41.61 40.08 43.33 41.21 41.61 40.01 38.35 38.23 36.97 37.22 37.24 38.47 43.03 43.10 37.29 40.50 35.46 30.83 33.24 39.77 41.17 39.22 35.64 34.52 28.38 27.87 30.01 29.23 29.11
47.94 48.02 47.68 48.63 49.71 50.84 47.51 38.78 38.70 46.94 46.88 34.52 35.47 37.16 38.94 41.11 40.23 41.53 41.26 39.54 41.23 41.62 38.75 35.14 38.40 38.91 42.09 42.44 41.73 39.38 39.97 34.50 28.94 32.04 36.64 39.56 35.76 37.39 37.25 35.90 34.20 29.30 26.60 29.80
48.18 47.96 47.52 48.98 50.35 50.52 47.67 40.26 34.47 39.69 43.56 44.05 38.69 37.44 38.40 38.32 43.84 42.40 43.02 41.42 42.24 40.19 38.49 40.36 37.56 37.43 40.40 42.31 42.44 42.61 43.10 36.32 33.20 29.59 34.34 37.07 33.54 35.10 36.54 34.73 30.16 30.43 31.17 32.98
47.59 47.74 47.49 48.76 49.84 50.10 47.51 42.88 38.07 40.57 35.97 38.78 39.64 40.44 39.70 37.92 37.44 42.84 43.46 40.24 40.34 39.15 36.02 37.00 36.58 39.15 39.87 41.31 42.82 41.42 39.68 32.97 34.85 35.38 36.37 36.40 35.40 34.93 35.46 32.53 33.68 29.91 33.05 33.46
47.44 47.51 47.86 48.62 49.18 49.43 44.70 38.56 38.81 42.18 40.99 41.62 39.65 39.44 39.39 38.66 39.98 40.64 39.10 39.43 41.00 40.90 38.24 39.10 36.50 39.27 39.48 38.62 40.69 39.54 40.14 33.61 34.79 31.55 35.70 35.97 34.23 37.01 37.27 36.98 36.43 34.82 34.99 34.02
47.44 47.31 48.06 48.50 48.39 48.11 42.61 44.37 44.15 41.67 40.16 40.65 39.54 39.77 39.97 39.36 42.12 42.74 43.60 42.63 41.43 39.69 41.21 43.89 44.55 44.91 44.02 42.57 39.66 37.84 37.14 34.29 32.18 30.02 36.50 35.65 33.08 36.87 37.41 37.52 38.33 36.88 33.19 37.59
46.97 46.97 47.07 47.54 47.10 48.02 44.63 44.86 43.55 40.61 36.73 40.29 39.63 40.32 41.03 40.29 41.69 40.71 43.06 44.12 41.53 44.65 48.58 47.55 46.93 45.45 43.90 43.55 41.67 41.78 36.79 34.19 34.42 31.56 33.97 29.20 38.54 41.65 41.30 39.24 40.67 41.42 40.36 41.40
46.75 46.83 46.94 47.12 46.37 47.21 44.30 45.35 43.29 41.03 38.45 40.26 40.71 40.88 41.35 42.47 43.09 42.12 42.73 44.38 46.53 48.53 45.68 40.59 36.97 37.87 37.85 39.65 41.51 41.14 41.25 36.94 33.63 31.02 30.72 35.23 39.45 41.51 39.82 38.08 38.26 42.52 40.32 42.81
45.41 46.10 46.22 45.93 45.97 46.39 44.57 45.93 45.59 43.19 39.30 40.31 43.58 41.57 42.75 40.15 40.82 41.55 42.65 46.76 49.22 47.22 43.32 39.09 32.07 32.02 35.56 34.71 36.38 41.34 41.05 39.29 35.48 33.60 29.21 28.45 39.06 44.22 45.37 44.03 36.53 43.40 42.73 43.98
44.85 44.77 44.79 45.06 45.42 45.79 44.41 44.72 45.03 41.93 39.36 44.82 45.30 41.52 41.73 44.48 43.39 41.98 43.32 43.88 44.01 46.37 39.85 35.78 33.71 33.36 38.66 33.50 34.60 34.19 35.49 35.56 32.31 32.22 30.69 34.79 42.88 44.34 45.15 35.95 37.48 43.66 42.25 44.95
44.81 44.66 44.57 44.62 44.80 44.79 44.01 43.09 45.44 40.65 37.11 39.86 46.26 47.02 44.78 45.19 45.16 41.06 43.95 42.58 42.80 41.98 37.71 37.11 36.47 35.74 37.83 36.74 39.61 38.22 36.25 34.02 33.03 33.17 30.89 30.23 45.09 44.74 39.76 43.79 45.82 44.91 44.43 44.37
44.73 44.69 44.65 44.52 44.36 44.32 44.53 40.06 44.80 44.92 38.16 39.37 47.36 50.43 50.65 50.06 49.64 46.95 45.83 44.00 43.31 43.69 39.28 38.95 39.02 36.94 38.18 38.02 33.55 42.21 36.66 40.90 38.81 39.32 40.05 46.82 47.77 45.84 47.72 46.51 44.37 44.65 44.24 45.31
44.74 44.79 45.01 44.82 44.23 44.20 43.76 41.87 42.99 41.05 38.20 42.14 45.29 46.31 50.33 51.55 51.09 52.62 44.90 45.98 46.89 45.44 47.74 42.39 40.49 36.91 39.94 35.55 37.69 40.41 43.05 45.28 41.04 41.65 45.51 46.39 47.77 48.01 46.31 44.36 43.48 44.13 44.80 44.21
44.90 44.82 44.47 44.67 44.50 43.92 43.80 41.77 43.57 40.53 36.65 35.48 43.01 49.55 48.19 50.72 50.61 50.20 50.51 49.18 48.72 47.95 47.16 41.85 39.51 36.71 42.50 39.28 40.57 40.68 43.78 43.57 42.68 43.01 46.02 47.81 46.37 45.53 44.21 42.65 42.84 43.32 43.99 42.86
44.79 44.25 44.39 44.59 44.27 43.98 44.15 43.74 43.79 43.16 36.81 35.99 41.62 47.15 47.44 49.48 50.20 48.88 49.49 49.21 47.80 45.80 42.82 40.75 39.04 41.64 41.32 42.51 41.67 40.07 45.09 43.35 42.08 41.67 46.79 46.40 45.42 44.07 43.74 42.54 41.40 41.50 40.21 38.79
44.67 44.32 44.42 44.46 43.73 43.74 41.14 36.34 42.36 43.73 42.26 36.37 39.26 46.94 45.79 47.17 48.86 48.39 47.48 47.76 46.78 45.75 43.12 42.03 43.01 45.04 42.02 37.98 37.99 44.70 47.33 48.32 48.54 46.66 46.50 45.00 43.90 43.22 43.31 41.84 41.06 40.61 39.77 38.85
44.12 43.60 43.76 43.78 43.45 41.86 36.73 35.56 41.13 43.70 42.72 36.68 38.49 40.48 45.81 47.10 46.72 46.44 46.19 47.18 46.22 45.25 43.53 41.49 42.33 42.75 43.18 39.70 36.53 44.82 47.29 48.39 48.11 48.22 45.46 43.63 42.71 43.06 42.13 41.31 40.31 39.84 38.89 38.44
43.63 43.75 42.86 43.06 43.86 42.89 38.97 42.59 44.69 44.45 40.09 39.69 36.98 38.92 41.88 46.57 43.07 42.31 46.50 43.82 44.95 44.47 43.24 43.36 41.25 42.66 42.22 37.81 43.08 45.34 46.97 47.99 47.70 46.54 45.56 43.50 43.64 41.79 40.37 39.60 38.70 37.02 36.50 36.29
43.34 42.39 42.75 43.82 41.65 38.04 40.11 43.51 44.27 44.85 39.99 36.37 39.71 37.24 36.21 45.84 43.75 44.94 44.23 46.07 40.42 45.30 41.39 41.68 41.86 39.90 37.25 41.61 44.31 46.08 47.57 45.53 46.30 44.08 42.60 41.64 40.84 39.74 38.88 38.74 38.24 36.51 35.79 35.90
41.88 41.32 39.02 35.36 39.22 42.64 43.26 40.16 38.23 38.54 39.80 39.76 39.52 43.07 39.17 43.65 42.89 42.16 42.59 43.11 40.04 36.31 41.12 42.05 38.32 38.06 44.06 45.77 46.88 47.52 47.02 46.35 42.63 39.02 36.71 37.18 36.60 37.12 38.08 38.39 39.45 38.33 36.65 35.63
38.99 35.00 33.60 39.53 42.67 40.31 38.40 33.90 33.31 36.87 36.05 41.21 42.48 42.43 40.35 44.70 39.79 40.63 42.25 39.12 37.40 34.79 37.71 36.99 37.57 37.71 42.65 42.41 41.50 42.44 43.04 44.86 44.56 45.06 44.65 41.91 41.58 39.57 38.91 39.12 39.49 37.92 36.38 34.73
37.71 37.36 39.92 39.03 34.89 34.19 33.03 32.72 33.85 35.69 35.42 40.84 40.42 41.20 42.42 42.98 44.09 41.62 40.31 36.98 37.23 33.01 37.69 34.98 32.85 40.07 40.70 39.48 38.29 39.24 40.95 43.64 44.06 43.03 41.94 42.44 42.17 41.46 40.15 38.78 37.07 36.26 35.35 33.09
40.40 36.62 32.71 33.12 35.41 30.97 31.23 28.57 31.26 32.87 34.77 35.10 37.13 37.66 41.01 41.25 41.97 39.85 38.09 33.63 33.92 37.16 33.72 32.74 37.06 41.37 39.37 36.68 36.84 38.22 39.51 40.96 40.96 39.42 40.75 41.12 40.35 39.93 38.15 36.58 36.36 34.43 32.97 32.43
32.44 29.41 28.05 29.67 30.53 30.22 30.46 30.43 32.04 35.01 34.59 35.48 37.09 37.20 38.38 38.63 38.43 38.49 33.87 36.38 35.26 31.10 29.32 32.35 40.60 37.82 35.37 36.05 37.49 37.62 37.71 37.84 37.81 37.52 37.69 36.89 36.65 36.58 36.66 35.39 34.42 33.22 31.70 31.45
31.20 30.68 26.81 28.54 31.55 33.59 33.56 34.13 34.06 35.03 37.09 36.27 36.64 36.38 37.10 35.76 34.89 35.94 34.71 31.63 29.80 31.86 33.14 38.30 36.93 34.76 34.79 35.56 36.06 36.60 36.69 35.92 35.19 35.54 35.21 34.86 34.34 33.96 32.77 33.28 33.54 32.36 30.72 30.87
32.24 30.49 28.37 30.98 30.51 31.88 32.95 33.05 32.34 36.41 35.62 36.11 35.40 33.90 34.26 33.86 36.18 31.48 31.01 30.14 30.45 35.36 34.24 35.67 35.11 33.85 34.41 34.80 35.11 35.19 35.39 35.63 35.10 35.42 34.91 34.41 33.96 32.80 32.22 32.69 31.76 31.33 30.87 29.53
28.97 29.42 33.82 32.38 30.23 30.81 32.47 33.08 33.98 36.52 34.48 32.74 32.91 31.81 32.90 33.75 32.46 30.83 35.47 33.26 33.78 32.48 33.17 33.95 33.85 32.14 32.35 32.88 33.33 33.63 33.65 34.37 34.53 33.95 33.93 33.27 33.01 32.33 31.10 28.98 29.25 28.32 28.68 28.18

GFSNW_sfc_wetblb_018.txt.gz
Wetbulb
47.96 48.54 48.29 48.89 49.45 51.41 47.48 42.39 34.41 46.58 49.33 36.82 37.80 34.99 36.68 41.79 40.19 44.18 41.59 41.95 39.63 35.74 35.93 35.11 34.65 35.81 38.34 42.41 41.71 36.20 39.61 35.41 26.39 30.75 37.92 39.18 37.30 33.78 32.94 27.13 22.00 26.89 24.89 26.21
48.50 48.23 48.21 48.87 49.73 51.05 47.74 39.74 39.58 47.18 45.84 33.48 35.09 37.88 39.29 40.77 40.70 41.87 41.13 39.45 41.62 40.50 36.94 34.38 37.63 38.83 40.81 41.78 40.57 37.86 39.03 32.20 23.51 27.01 33.98 36.92 33.49 35.27 35.52 34.55 32.73 27.12 24.19 26.50
48.59 48.75 48.76 49.63 49.51 50.36 48.44 41.25 34.60 40.84 42.82 42.54 36.93 37.13 37.15 38.12 44.01 42.43 43.02 41.02 41.99 39.67 37.49 39.78 36.21 36.90 40.31 41.07 41.58 43.76 42.36 36.06 28.00 23.62 27.95 33.29 31.08 33.91 35.40 33.90 28.99 28.27 29.29 30.88
48.07 47.91 48.75 49.03 49.42 50.27 48.31 43.72 38.68 41.11 36.75 38.32 38.81 40.74 40.00 37.50 37.34 43.00 43.55 40.37 40.42 38.84 35.38 36.25 35.99 38.65 38.46 40.51 42.41 40.90 37.88 31.10 30.88 33.74 34.81 34.32 32.75 33.08 34.32 32.74 33.75 30.04 31.66 32.71
47.53 47.50 48.59 48.77 48.84 49.39 45.25 39.76 38.65 40.82 40.50 40.93 39.92 39.73 38.70 38.37 39.90 40.93 39.06 39.16 40.67 40.26 37.24 38.58 35.93 38.34 38.40 37.33 39.41 37.42 39.18 32.38 34.07 30.45 34.00 33.99 31.70 34.05 35.11 36.07 36.91 36.62 36.47 35.53
47.42 47.38 48.36 48.17 48.31 47.04 42.34 44.56 44.82 41.10 40.84 39.22 37.61 37.96 39.63 39.99 42.20 42.69 43.37 42.39 40.61 39.84 41.16 43.32 42.98 43.05 42.96 41.65 38.69 36.85 36.94 34.49 31.60 26.73 34.33 33.14 29.77 34.60 37.92 38.07 38.84 38.44 34.64 38.43
46.18 46.76 46.67 46.47 46.84 46.85 43.36 44.24 43.28 39.73 36.41 39.12 39.21 41.01 41.57 40.58 42.20 40.53 43.08 43.69 41.49 44.15 46.99 46.04 44.99 42.83 42.73 42.52 39.88 40.42 36.77 33.98 33.14 29.44 30.73 22.32 36.47 41.35 41.44 39.49 40.82 41.98 40.53 41.58
45.80 45.53 45.49 45.81 46.21 46.52 42.98 45.08 41.93 40.16 37.12 40.07 40.13 40.42 40.54 41.63 42.38 41.97 42.53 43.99 45.03 46.94 44.16 39.07 36.08 36.83 37.01 37.84 40.08 39.75 40.54 35.79 33.01 29.80 26.65 31.64 36.86 41.72 39.22 37.08 36.89 41.09 38.73 41.95
45.62 45.36 45.23 45.26 45.60 45.73 43.17 44.96 44.38 41.39 38.37 38.50 42.85 40.51 41.81 38.53 38.59 39.87 42.43 45.94 47.52 45.60 41.52 37.94 30.15 30.53 35.15 32.94 35.33 40.73 40.22 39.41 34.76 33.01 27.92 23.80 37.63 41.64 44.60 41.92 34.85 42.00 40.50 41.37
45.55 45.34 45.07 44.97 44.97 44.98 43.19 43.93 43.92 41.09 38.22 42.10 41.77 40.39 40.11 43.86 41.92 40.48 42.04 43.13 42.75 44.54 38.67 34.89 32.79 31.97 36.73 31.01 32.89 33.82 35.26 35.21 31.26 31.76 30.67 32.11 39.57 41.68 43.76 33.39 34.15 41.56 41.37 42.35
45.70 45.42 45.20 44.95 44.72 44.56 42.99 41.73 44.71 39.15 36.08 37.66 42.66 44.66 43.22 42.72 41.83 39.02 42.23 40.96 41.38 40.50 36.74 35.32 35.68 34.84 36.20 33.54 36.74 35.23 33.35 32.43 31.84 32.63 30.19 25.58 41.49 40.97 36.35 40.00 41.72 42.00 41.03 41.25
45.53 45.59 45.40 45.18 44.82 44.27 43.86 38.76 44.41 43.95 37.38 37.45 42.79 43.31 44.67 48.47 47.78 45.55 44.31 42.45 41.68 42.10 38.25 37.29 38.33 34.82 36.35 35.22 30.88 39.29 33.25 37.19 36.47 34.87 34.95 42.03 43.46 42.66 42.94 42.61 40.60 40.65 40.57 41.12
45.54 45.30 45.54 45.00 44.68 44.57 42.62 39.68 42.48 41.47 36.86 38.39 40.92 44.19 49.15 50.80 50.49 50.96 43.31 43.71 45.51 43.92 45.52 40.86 39.81 35.52 39.51 34.71 34.27 35.76 39.80 41.40 36.97 38.22 41.11 41.55 43.02 43.59 42.53 40.69 39.35 40.73 42.14 42.05
45.31 45.08 45.23 44.41 44.47 44.72 43.21 39.89 41.44 40.38 35.37 31.88 41.04 48.80 46.45 49.63 49.46 49.02 49.20 47.20 47.80 46.85 45.98 41.64 39.02 36.91 40.26 38.04 38.55 37.69 40.14 41.37 38.73 38.63 41.76 42.02 41.25 40.44 40.25 40.11 40.77 40.90 40.53 40.61
44.75 45.10 45.18 44.93 44.73 44.57 42.49 41.81 41.64 42.70 35.64 33.20 37.42 44.56 47.44 48.64 48.83 47.86 48.41 48.27 46.92 45.17 42.43 41.12 38.52 41.02 39.95 40.02 39.53 36.70 39.69 39.21 37.57 37.17 42.42 41.82 38.86 39.61 41.07 39.66 38.92 38.72 37.39 36.70
44.47 44.80 44.54 43.96 43.84 43.58 40.22 35.10 42.41 44.38 40.91 33.90 34.45 46.25 45.40 46.87 48.57 47.39 46.47 46.57 45.44 45.09 43.02 41.50 42.61 44.15 41.10 36.83 35.37 40.84 42.24 44.16 44.77 42.56 41.69 41.59 40.61 40.37 40.29 39.01 38.54 38.32 36.85 36.23
44.79 44.30 44.27 43.82 43.32 41.07 35.97 33.56 39.42 42.80 42.10 34.59 34.09 39.94 45.58 46.71 46.80 46.12 46.33 46.30 45.41 44.64 43.04 41.25 41.55 41.90 42.64 39.50 35.66 40.93 44.35 43.76 43.74 44.11 41.95 39.86 39.87 38.89 39.39 38.71 38.26 38.35 36.24 35.74
44.19 44.14 43.44 43.88 43.81 42.53 38.42 40.56 42.80 42.36 37.10 38.11 33.66 37.73 41.59 46.25 42.90 42.04 45.92 43.78 44.45 43.97 42.63 42.93 40.83 41.91 41.49 37.06 39.57 41.42 42.83 44.17 44.11 43.71 42.41 40.71 40.01 39.10 37.88 37.50 36.86 34.89 33.49 33.43
43.76 42.89 43.63 42.88 40.43 36.61 38.87 43.94 43.59 42.72 38.46 33.51 37.85 34.95 34.05 44.90 43.24 43.95 42.44 44.63 39.89 44.28 40.77 40.79 41.30 39.41 36.35 39.54 41.35 42.70 45.04 43.34 41.59 40.11 39.61 38.99 38.25 37.52 36.79 36.73 36.02 34.13 33.59 32.78
42.54 40.86 38.16 34.57 37.82 43.20 43.14 38.87 36.00 35.14 37.57 38.15 37.49 41.65 38.22 42.76 42.30 40.23 41.51 42.22 38.88 34.46 39.43 41.20 37.89 37.36 42.20 43.85 44.06 41.24 41.68 43.71 39.99 36.73 32.96 32.95 31.72 34.09 35.96 36.11 36.71 36.06 34.52 33.09
38.42 34.48 33.16 39.01 42.50 40.53 37.56 32.90 32.50 34.91 34.24 39.76 40.72 40.11 39.03 42.35 38.66 39.45 40.45 36.57 35.67 33.56 35.34 35.69 34.67 36.06 39.77 39.93 38.79 39.09 39.36 39.90 40.91 41.50 41.69 39.30 38.41 37.10 36.34 36.48 36.34 35.67 34.74 32.92
37.75 36.75 39.57 39.19 35.58 33.30 31.65 32.16 33.40 33.90 33.89 38.79 39.36 38.76 39.38 40.89 41.52 38.99 39.15 34.49 34.87 31.49 35.99 33.62 31.98 36.56 37.06 35.51 35.62 36.85 38.50 38.80 40.63 41.90 39.60 40.14 40.01 39.06 38.09 37.12 35.90 35.08 33.36 30.98
40.32 35.84 31.12 32.11 33.72 29.39 29.35 27.01 31.91 32.33 34.00 34.52 35.92 35.81 38.59 38.92 38.79 37.81 36.14 32.71 32.81 33.69 32.16 31.07 30.18 33.79 34.22 33.89 35.81 36.29 38.17 38.74 38.54 38.16 39.16 39.75 39.57 39.27 38.36 35.67 35.05 32.79 31.19 30.54
31.89 28.61 24.11 28.93 28.70 29.55 29.95 30.71 31.59 33.77 34.19 35.10 36.69 35.81 34.20 36.58 34.69 35.08 32.82 35.45 32.93 29.52 28.52 26.73 32.84 31.76 33.15 34.41 35.21 35.17 35.78 35.81 35.84 35.78 36.21 36.46 36.94 35.91 35.42 34.98 33.16 31.79 29.83 29.64
29.88 28.78 25.83 28.34 31.72 32.66 32.51 32.78 33.30 34.56 36.58 35.95 35.95 35.01 36.69 34.02 33.71 33.94 33.11 30.50 28.30 30.12 26.64 32.23 31.37 31.04 32.01 32.19 32.64 33.19 33.49 34.17 34.11 34.21 33.92 34.03 33.98 33.56 32.22 32.09 31.68 31.36 29.88 29.08
30.87 29.57 27.75 30.81 29.87 29.35 30.53 32.00 31.95 35.20 35.14 35.41 34.59 33.56 33.02 33.03 33.47 30.72 29.96 29.26 27.89 29.90 26.74 28.60 31.17 30.92 31.17 31.28 31.70 32.23 32.68 33.22 33.86 34.21 33.83 33.45 32.42 31.68 30.86 30.52 30.27 29.91 29.57 27.87
28.34 27.89 31.81 31.87 30.29 27.64 27.21 30.25 32.42 35.26 33.76 32.02 32.26 31.67 32.37 32.51 30.91 29.36 31.03 30.77 29.64 28.73 28.05 28.03 29.47 29.65 30.27 30.34 30.59 31.50 31.53 31.96 32.37 32.27 32.71 31.55 31.69 31.52 29.83 28.07 28.14 26.88 27.08 26.66

GFSNW_sfc_wetblb_024.txt.gz
Wetbulb
48.23 48.88 48.65 48.93 50.16 51.67 45.62 37.43 28.26 42.75 45.58 33.65 36.72 33.13 35.15 40.49 39.83 41.49 39.89 37.28 34.93 32.56 33.83 31.83 30.79 30.96 33.96 39.16 38.84 34.06 36.37 31.30 20.52 28.76 34.17 35.86 33.70 31.04 29.40 20.43 17.68 21.09 20.15 23.72
47.34 47.71 47.83 48.46 49.61 50.84 41.45 34.38 35.09 43.54 41.31 27.45 34.96 36.13 38.12 40.57 39.43 39.44 38.75 36.67 37.31 36.75 33.79 30.19 32.36 34.62 38.35 40.28 38.90 35.05 36.40 28.13 18.50 25.74 31.55 33.39 31.31 32.67 32.67 31.03 30.98 20.76 21.90 24.08
46.98 46.70 47.11 48.39 49.02 50.60 42.46 35.61 27.83 35.06 38.19 38.53 36.02 33.85 35.60 35.94 41.35 39.96 40.09 37.07 38.22 35.80 34.10 35.35 34.12 33.73 38.14 39.94 41.21 43.62 40.49 31.07 23.34 21.31 23.46 30.01 26.55 30.95 32.23 30.72 23.73 24.95 25.91 29.15
47.00 46.59 46.51 47.46 48.46 49.67 42.66 36.43 33.40 36.91 29.11 33.21 33.22 36.29 36.81 35.69 36.33 40.67 40.18 37.18 37.07 35.80 33.80 33.70 33.00 34.82 35.52 38.50 42.54 40.46 37.46 24.94 26.34 30.33 32.14 31.66 30.53 30.96 31.46 27.32 30.59 26.40 30.10 31.19
46.96 46.51 46.18 46.63 48.00 48.12 42.61 35.73 36.55 38.81 35.84 35.89 34.90 35.61 34.36 36.31 37.65 38.56 36.99 36.49 38.68 37.89 35.83 35.58 33.18 35.14 33.84 33.21 35.51 36.35 35.43 23.59 31.71 28.64 31.06 31.56 28.85 31.65 32.25 32.89 33.62 33.23 32.63 31.79
46.78 46.32 45.99 45.94 46.61 45.10 41.69 41.72 43.50 40.68 35.77 33.88 31.73 32.52 35.97 37.15 38.99 39.62 40.83 38.99 38.88 38.26 39.67 40.73 39.80 39.46 38.77 37.43 34.57 33.17 33.07 29.53 28.01 22.80 30.30 29.84 26.19 30.37 32.43 34.57 35.94 33.95 32.92 37.51
46.62 46.19 45.97 45.74 45.68 44.56 39.94 42.62 41.48 37.77 31.83 34.04 34.14 37.35 38.52 38.05 39.22 37.25 40.07 41.19 39.68 42.28 43.96 43.22 41.95 40.16 39.88 38.95 38.23 38.59 35.40 33.01 32.32 25.89 27.36 18.86 33.35 37.70 37.35 34.90 37.80 38.95 38.87 40.20
46.40 46.04 45.85 45.64 45.62 45.31 38.23 43.26 40.25 38.14 32.98 35.98 36.57 38.06 37.17 39.08 38.90 38.76 39.69 41.54 42.42 44.23 41.66 36.90 33.94 33.88 36.21 37.30 38.41 38.49 39.07 35.17 30.74 27.39 26.34 29.51 33.48 37.67 37.06 35.63 35.35 39.02 38.65 39.14
46.87 46.14 45.49 45.46 45.52 45.09 36.90 42.37 40.94 39.06 35.74 33.57 38.82 39.47 39.74 34.44 33.06 36.27 39.63 43.10 44.53 42.58 39.33 35.80 28.51 27.13 30.79 32.33 35.24 39.25 38.36 38.12 34.10 32.47 25.80 22.83 32.03 39.38 41.21 39.81 32.21 39.80 39.60 38.60
45.72 46.48 45.46 45.67 45.54 45.01 38.01 36.55 39.07 35.60 35.28 37.67 36.75 36.06 38.70 38.93 35.81 34.53 36.56 38.57 38.79 41.16 35.42 32.36 29.67 26.35 35.65 31.87 31.61 33.11 34.30 34.92 31.60 32.43 29.46 30.10 36.82 38.11 41.59 30.12 32.16 39.47 38.88 38.93
45.46 45.34 46.20 45.45 45.46 44.68 39.29 35.53 39.07 34.02 30.05 32.72 37.14 40.03 39.04 40.67 39.23 36.19 38.07 37.49 38.02 36.58 33.15 32.03 32.02 30.29 32.01 30.28 32.95 33.75 33.28 32.35 32.36 33.29 30.07 25.52 39.02 38.66 35.75 38.74 39.23 39.93 38.77 38.43
45.55 45.36 46.05 45.33 45.23 45.28 42.26 35.90 38.13 39.89 34.41 30.29 37.36 37.99 38.11 38.43 43.03 42.01 42.18 37.70 37.68 38.09 34.15 32.95 33.81 31.16 33.00 30.47 27.11 34.33 33.28 35.00 32.48 33.01 32.31 38.56 39.53 40.16 40.84 39.80 38.72 38.25 37.80 38.23
46.26 45.76 45.09 44.89 45.24 45.72 43.70 36.46 36.70 35.39 32.72 30.90 31.33 33.15 39.23 41.94 40.79 43.51 41.10 43.38 43.92 40.79 40.36 36.47 36.21 33.24 35.86 30.60 31.51 31.52 37.43 39.16 37.36 36.07 37.98 38.38 39.65 39.83 38.86 38.04 37.55 38.82 39.67 38.14
46.88 45.82 44.89 45.06 44.99 45.24 44.90 38.42 39.26 37.34 31.86 27.28 27.93 41.17 37.68 42.80 45.34 44.48 46.72 46.90 45.19 43.24 41.09 37.19 36.02 34.60 38.04 35.29 34.74 35.40 36.95 38.00 38.24 36.81 38.67 40.29 38.80 40.39 38.63 38.04 38.24 37.25 38.14 37.46
46.43 45.41 44.78 45.17 45.17 44.86 43.01 38.17 37.19 38.08 30.70 26.14 28.10 34.06 37.50 40.43 45.11 46.34 48.19 46.69 44.60 41.78 40.52 37.77 36.39 38.15 37.27 37.17 37.92 35.93 36.65 35.59 34.10 33.27 40.03 41.70 40.95 39.25 39.25 37.59 36.88 36.17 35.98 34.44
45.98 44.94 45.10 44.41 44.44 44.46 39.13 34.08 40.56 40.90 37.30 27.97 24.64 37.38 37.17 45.72 46.56 46.55 46.10 46.56 45.52 44.13 41.63 40.79 41.87 43.34 40.27 36.48 35.00 38.83 38.68 39.43 41.72 38.56 40.29 41.01 40.39 38.92 38.06 36.62 36.21 36.17 35.46 35.25
45.57 44.64 44.47 44.09 43.88 41.95 36.14 30.23 37.86 42.47 39.96 32.30 28.09 30.69 40.04 46.10 45.91 45.68 44.94 45.79 43.75 43.75 42.42 41.01 40.77 41.22 42.20 38.82 35.05 39.01 42.11 43.99 44.21 42.52 42.27 38.90 38.56 38.91 38.10 36.64 36.32 37.11 33.72 33.83
44.94 44.26 43.59 43.29 43.91 41.33 37.47 37.77 41.96 40.78 35.47 32.99 27.72 29.81 41.07 46.27 42.49 41.60 45.51 42.95 43.62 43.21 42.01 42.25 40.17 40.76 40.79 36.52 37.80 41.27 40.92 39.06 41.77 40.03 41.49 41.07 37.49 36.22 35.28 34.72 33.43 32.20 31.36 31.58
43.56 43.71 43.56 39.90 36.29 33.69 37.41 43.40 43.04 40.46 35.65 29.80 31.56 30.96 33.06 44.87 42.76 43.12 42.37 43.79 38.89 42.01 39.46 39.76 40.54 38.17 35.99 35.33 34.38 35.19 34.88 34.56 35.76 37.42 39.49 38.08 36.29 35.23 34.07 33.12 32.32 31.24 30.61 31.73
42.59 38.44 35.38 32.03 35.51 42.96 42.90 38.94 35.07 33.50 33.83 32.92 29.91 37.48 37.24 41.99 41.23 39.85 39.97 40.10 38.84 34.33 39.63 41.26 38.40 37.32 37.49 35.49 35.23 34.91 34.88 35.61 35.33 33.61 32.72 34.28 29.58 31.69 33.37 32.65 32.92 32.44 32.18 31.11
35.30 32.52 31.70 35.72 41.55 38.42 36.69 31.65 30.41 33.08 31.40 33.86 34.79 38.71 38.51 42.40 38.14 38.69 40.79 35.46 35.08 32.94 35.35 36.31 33.51 35.66 33.49 34.53 33.14 34.14 34.08 34.71 35.64 36.05 37.01 37.45 38.06 37.18 34.58 33.02 33.08 32.62 32.41 32.19
34.69 36.61 39.09 38.17 35.23 32.68 30.54 30.38 32.93 32.52 32.77 37.21 37.64 37.77 39.38 39.47 41.16 37.95 37.23 32.33 33.63 31.05 36.28 33.38 30.63 33.66 32.71 32.23 31.88 32.55 32.98 33.89 35.01 36.05 36.13 37.22 38.52 38.19 36.13 34.65 33.79 33.11 33.26 31.87
39.10 35.91 31.00 30.72 31.99 25.63 26.45 25.94 30.96 31.93 32.97 34.17 34.74 34.63 36.49 38.58 39.35 36.01 35.27 32.32 32.20 33.78 31.75 30.31 31.72 30.75 31.17 31.35 31.65 31.55 33.02 33.97 34.98 35.91 36.34 37.07 37.82 37.14 37.13 35.64 34.73 33.10 30.36 30.06
31.11 27.82 24.55 26.53 24.98 28.53 28.99 29.47 30.87 33.75 33.62 34.30 36.00 34.73 34.73 35.89 34.12 35.63 31.96 34.06 32.99 28.92 27.33 28.70 30.53 27.21 29.54 30.53 31.18 30.48 30.76 32.85 33.12 34.68 34.52 35.15 36.52 35.17 34.93 33.82 32.76 31.63 30.07 29.81
25.84 28.25 21.69 25.09 28.99 30.87 31.44 32.11 32.69 34.41 35.75 35.12 35.43 34.64 36.35 32.45 32.78 34.00 32.36 30.32 27.68 29.01 28.04 29.84 23.94 25.05 28.85 29.20 29.53 29.48 30.06 30.71 31.26 32.80 33.66 33.25 35.02 34.62 33.45 33.41 33.30 32.58 31.29 30.22
26.97 27.63 23.96 29.26 27.96 28.66 29.76 29.98 29.76 34.90 34.10 34.83 34.08 32.99 32.60 32.49 32.11 30.90 29.32 27.81 26.72 26.89 28.76 22.67 25.26 27.39 28.63 28.91 28.97 29.46 29.81 30.16 30.69 31.50 32.13 32.93 32.97 33.42 33.51 33.30 33.12 32.01 30.60 28.65
25.38 24.90 29.42 27.55 29.18 28.95 28.16 30.89 32.14 34.31 33.06 31.91 32.19 31.43 27.92 32.23 30.87 28.74 31.26 29.65 29.57 29.39 30.00 22.67 24.56 25.44 27.18 28.29 28.62 29.55 29.30 29.31 29.55 29.51 29.77 29.45 31.03 30.09 28.98 27.59 28.31 28.97 29.12 28.07

GFSNW_sfc_wetblb_027.txt.gz
Wetbulb
47.75 47.67 48.03 48.82 49.62 51.81 44.21 35.61 28.37 41.71 43.52 32.52 37.13 34.27 36.75 40.29 39.27 40.37 38.82 36.03 33.65 32.03 33.04 31.25 30.05 30.61 33.50 38.04 37.58 32.88 35.16 29.58 21.60 28.86 33.43 35.12 32.97 30.29 28.34 19.69 16.83 19.65 19.15 23.12
47.54 47.44 47.45 48.05 48.83 50.62 40.30 33.80 34.11 42.07 40.69 28.81 34.30 35.90 36.97 38.83 38.25 37.93 37.29 34.78 35.80 35.33 32.52 29.61 31.22 32.96 37.37 38.85 37.20 34.15 35.60 26.04 16.31 24.10 29.63 32.53 29.72 31.22 30.87 28.53 24.81 17.02 18.32 23.28
47.42 47.13 47.05 47.28 47.97 49.71 41.33 34.72 29.43 35.22 37.31 36.26 34.33 33.65 34.71 35.00 39.95 38.58 37.92 35.90 36.73 34.71 33.04 33.63 31.87 32.80 37.47 39.15 39.38 42.95 39.81 29.80 23.40 20.26 23.03 28.24 24.84 29.99 31.42 28.56 21.73 23.08 24.86 26.69
47.45 46.96 46.73 46.77 47.21 48.61 40.94 35.06 34.48 36.59 30.81 32.88 32.83 34.24 35.88 34.95 35.92 39.51 37.93 35.13 35.83 34.97 31.72 32.53 31.94 33.80 34.71 38.20 42.96 38.63 35.56 24.74 26.01 29.53 31.26 30.78 30.23 30.47 30.49 26.25 29.13 24.81 27.86 28.58
47.39 46.88 46.52 46.45 46.79 47.42 40.03 34.84 36.80 39.00 34.50 34.50 33.07 34.20 33.65 35.53 36.84 37.63 36.12 34.47 36.26 35.48 33.62 34.27 32.20 34.16 33.05 33.74 35.63 36.37 34.42 25.70 30.90 24.67 30.42 30.64 28.51 30.76 31.25 31.51 31.61 30.92 31.41 30.66
47.31 46.68 46.44 46.24 46.09 44.36 38.02 39.32 42.58 39.63 35.47 32.52 30.81 31.40 34.97 36.44 38.29 38.87 39.85 38.57 37.69 37.27 38.77 39.44 38.27 37.78 37.52 36.31 34.57 32.85 32.07 30.49 28.38 23.89 28.78 29.43 26.09 29.69 31.11 31.95 33.61 32.62 28.76 34.27
47.46 46.63 46.44 46.13 46.03 42.95 41.96 41.63 41.02 36.64 31.23 32.64 33.23 36.04 36.87 36.95 38.34 35.68 39.47 40.03 37.91 41.05 43.12 42.17 41.03 38.73 37.28 36.87 35.49 37.24 32.33 32.54 31.29 26.46 27.15 19.30 30.81 35.03 35.38 33.77 35.22 35.83 36.19 38.20
47.03 47.16 46.33 46.22 45.99 45.13 36.27 40.08 36.89 37.76 32.79 35.27 34.23 36.39 36.68 37.62 37.67 37.80 38.80 40.53 41.41 43.43 40.73 35.82 33.08 34.01 35.97 36.83 37.67 38.27 38.37 34.97 29.35 26.36 26.79 27.55 32.12 35.42 36.02 34.58 35.00 38.44 37.95 39.64
46.04 46.27 46.36 45.81 46.15 45.74 36.09 40.09 37.09 36.36 35.08 32.11 37.71 35.97 36.02 33.19 32.27 35.52 38.46 41.66 43.31 41.66 38.25 34.86 28.55 25.97 28.78 30.90 34.56 38.85 38.14 37.63 33.88 31.48 26.45 21.08 31.08 38.34 40.23 39.10 31.00 39.07 39.09 38.84
46.22 45.68 45.68 45.91 45.58 45.70 37.49 35.11 37.18 32.97 32.49 36.23 37.25 33.52 37.14 37.93 34.22 33.70 34.82 37.38 37.56 39.48 34.00 31.20 29.09 26.08 32.99 30.26 31.27 32.67 34.25 34.64 31.28 31.66 29.49 29.18 35.81 37.79 40.86 28.93 31.42 38.53 38.70 38.68
47.54 46.09 45.49 46.33 45.48 45.24 40.40 36.00 37.82 33.01 28.07 29.96 33.81 37.53 35.06 37.70 38.15 33.92 36.71 36.73 36.90 35.31 31.68 30.99 30.65 29.72 31.67 29.29 32.44 31.41 33.16 31.57 31.93 31.81 30.36 24.64 38.88 39.85 35.02 37.88 38.43 39.00 38.32 37.41
47.13 46.94 46.03 45.41 45.12 45.19 41.91 34.34 38.97 40.17 32.95 29.72 34.42 35.34 35.90 36.14 38.72 36.89 39.92 36.95 36.21 37.18 32.91 32.01 32.45 31.14 32.57 30.29 27.19 32.96 32.91 34.36 31.66 31.85 32.19 37.92 39.58 38.48 40.19 39.29 38.17 37.50 37.09 38.10
46.68 47.47 46.64 45.36 45.17 45.23 44.42 37.97 38.96 37.76 34.07 30.17 30.23 29.64 34.84 38.82 38.30 39.86 35.23 40.78 43.01 38.95 38.94 35.18 34.15 31.55 33.65 29.10 29.94 30.21 34.31 38.20 36.66 35.05 37.47 37.79 39.75 40.37 39.46 38.59 37.44 37.89 38.67 38.52
46.37 47.28 46.71 45.45 44.82 44.97 44.96 39.36 39.43 38.52 34.76 26.21 25.92 35.61 34.17 40.03 39.71 40.27 39.32 39.77 45.25 43.42 41.41 35.94 34.30 32.28 35.80 33.07 33.34 34.34 35.81 37.24 35.14 35.08 37.35 39.09 39.04 40.02 40.18 38.89 38.15 37.57 37.52 37.28
45.98 46.45 46.15 45.22 45.37 44.79 42.12 39.60 39.92 40.49 34.47 24.99 26.45 31.98 33.95 34.88 34.50 39.77 41.87 40.02 41.99 41.67 40.65 37.34 36.08 38.30 35.63 35.00 34.90 32.74 35.60 34.40 33.29 32.60 36.86 37.80 39.29 41.49 39.73 38.35 37.37 37.10 36.49 34.56
45.65 46.37 45.83 44.90 44.60 44.27 39.87 34.29 39.03 39.12 39.05 31.83 22.65 31.39 33.07 37.51 37.83 43.31 42.67 43.06 44.96 42.82 41.26 38.37 39.73 42.34 38.14 34.61 34.55 38.15 37.64 39.64 41.32 38.56 40.25 41.24 41.46 39.93 38.97 37.70 36.81 36.23 35.97 35.36
45.83 46.04 45.14 44.24 43.91 41.34 34.86 29.87 34.45 42.24 40.06 31.75 25.79 28.28 36.42 37.69 43.92 44.99 45.35 46.00 44.00 42.66 42.56 39.41 39.61 40.82 41.18 38.37 34.17 37.18 41.60 41.98 40.71 41.77 39.95 38.36 38.69 38.75 38.15 36.90 36.02 37.46 34.35 34.05
46.05 45.00 43.84 43.66 43.71 40.93 37.31 39.37 41.86 40.93 36.42 33.32 25.89 27.81 33.44 44.32 41.20 41.35 45.17 41.83 42.28 43.04 41.57 40.18 39.67 40.60 40.69 35.91 35.22 34.89 36.85 36.48 37.32 37.90 38.20 38.27 39.12 37.02 35.37 34.80 33.77 32.70 32.12 31.34
44.64 43.38 43.90 39.22 35.20 31.47 35.07 43.54 42.98 40.83 35.76 28.89 29.89 27.50 32.90 44.84 42.26 42.84 41.64 43.04 38.51 42.72 39.62 38.61 39.61 38.19 35.62 33.12 32.18 34.15 34.31 32.56 33.39 35.13 35.17 36.67 37.52 37.76 34.65 33.21 32.34 31.81 31.03 30.41
42.08 38.30 34.25 31.29 34.29 42.59 42.94 38.41 34.75 33.58 33.83 32.57 27.92 33.76 35.20 42.25 41.33 39.50 40.16 40.81 37.81 32.56 37.86 40.35 36.81 37.14 35.22 34.38 34.56 34.78 34.37 32.96 32.81 31.05 30.39 29.98 29.16 30.06 33.73 32.71 32.95 32.70 31.61 30.54
34.95 31.16 30.85 34.04 40.95 36.21 35.63 32.18 30.01 31.95 29.96 33.10 32.70 35.56 38.58 42.41 37.65 38.55 40.37 35.37 35.26 32.24 35.12 36.86 33.86 34.56 33.69 33.94 33.25 33.30 31.41 31.54 32.30 33.03 34.59 35.22 34.99 35.21 35.79 34.58 33.08 32.40 31.48 30.80
34.65 34.57 39.05 38.02 35.25 32.12 29.26 29.73 32.27 31.85 31.65 36.48 35.70 37.57 38.87 40.43 41.37 37.42 37.79 33.17 33.62 30.19 36.69 33.23 30.82 32.11 31.36 30.83 30.21 30.71 30.61 31.21 32.57 34.81 35.61 35.23 35.55 36.45 36.67 35.92 33.40 32.05 31.70 31.80
37.76 35.76 31.24 30.53 30.82 25.11 25.26 23.46 29.53 31.45 32.94 34.01 34.26 34.80 37.43 39.54 39.06 34.74 33.75 32.08 31.14 33.28 31.77 30.47 31.69 30.14 28.91 28.69 29.64 29.88 30.77 32.80 33.62 34.70 36.03 35.64 36.55 36.36 37.51 36.35 34.87 33.79 32.40 31.86
29.62 27.60 23.50 25.62 23.74 25.82 23.38 27.17 25.60 33.46 33.48 34.04 34.88 34.74 35.17 35.56 34.57 35.32 32.02 33.56 32.74 29.17 27.03 28.31 28.29 29.47 27.58 29.04 29.79 29.44 29.38 30.93 31.43 32.62 34.17 34.23 35.77 35.33 34.31 33.71 33.21 31.89 29.94 29.50
23.83 28.01 19.51 19.54 27.71 30.12 30.95 31.52 31.57 34.37 35.37 34.57 34.48 34.76 35.92 32.80 32.95 33.80 32.15 30.30 27.81 28.96 27.40 25.99 29.06 24.76 27.81 28.63 29.26 29.21 29.11 29.70 30.02 31.08 31.64 32.28 33.60 34.76 34.17 33.61 33.12 31.83 30.07 29.76
23.09 23.52 22.27 26.48 24.37 22.79 28.92 29.55 29.85 34.27 34.28 34.40 33.61 32.58 32.55 32.95 31.88 30.97 29.72 27.42 26.40 25.13 23.13 28.90 24.85 27.16 27.95 28.31 28.34 29.01 29.35 29.32 29.59 30.03 30.28 30.32 31.06 30.68 32.78 33.94 33.63 32.66 31.85 30.82
17.36 21.24 28.48 25.80 26.26 25.30 25.95 30.55 31.87 32.94 33.06 31.81 31.92 30.74 30.56 31.74 29.38 28.56 31.30 29.63 28.89 24.20 29.40 26.27 24.32 25.03 25.94 26.77 27.74 28.41 28.91 28.52 28.44 28.26 29.25 28.85 28.82 29.56 29.55 29.64 29.98 30.94 31.20 30.19